Other Public Products
Issued by NWS Charleston, SC

Current Version | Previous Version | Graphics & Text | Print | Product List | Glossary On
Versions: 1 2 3 4 5 6 7 8 9 10 11 12 13 14 15 16 17 18 19 20 21 22 23 24 25 26 27 28 29 30 31 32 33 34 35 36 37 38 39 40 41 42 43 44 45 46 47 48 49 50
831 FPUS82 KCHS 200527 OPUCHS TEST...KCHS/KSAV Gateway Observations...TEST National Weather Service Charleston SC 100 AM EDT FRI APR 20 2018 NOTE: "fair" indicates few or no clouds below 12,000 feet with no significant weather and/or obstructions to visibility. SCZ050-WAZ558-NCZ071-TXZ119-213-PAZ071-DCZ001-FLZ074-172-MI076- NYZ176-178-MAZ016-IL014-TNZ027-NJZ106-GAZ044-MD014-200600- ...Gateway Observations for Charleston International... CITY SKY/WX TMP DP RH WIND PRES REMARKS Chas Airport FAIR 58 35 42 N13G23 30.13R Seattle PTCLDY 52 37 56 N8 30.26R Charlotte FAIR 44 29 55 N8 30.24R Dallas DFW PTCLDY 55 37 50 E7 30.25F Dallas Love PTCLDY 57 38 48 E6 30.26F Philladelphia FAIR 41 22 46 NW14 30.10R Wash National FAIR 44 22 41 NW8G17 30.18R Baltimore FAIR 39 23 52 W9 30.15R WCI 33 Miami MOCLDY 72 66 81 S5 30.08F Detroit FAIR 36 27 69 SW5 30.35R WCI 32 Newark FAIR 38 25 59 W12 30.04R WCI 30 Laguardia FAIR 40 24 53 NW18 30.02R WCI 31 J F K FAIR 38 24 57 NW17G24 30.03R WCI 28 Boston Logan CLOUDY 40 30 67 W15 29.84R WCI 32 Ft. Lauderdale FAIR 74 67 78 SW6 30.06F Chicago O`Hare FAIR 40 23 50 NW7 30.43R WCI 35 Chicago Midway FAIR 39 25 57 W3 30.44R Houston Bush MOCLDY 60 46 59 NE5 30.22S Houston Hobby MOCLDY 62 43 49 NE9 30.21F Nashville FAIR 42 32 67 N6 30.35F Atlanta FAIR 50 33 52 N12 30.18R $$ GAZ044-118-TXZ119-213-NCZ071-DCZ001-MDZ014-506-PAZ021-071-NJZ106- NYZ176-178-MAZ106-OHZ011-021-055-MIZ076-KYZ091-ILZ014-INZ047- MNZ060-ONZ431-200600- ...Gateway Observations for Savannah International... CITY SKY/WX TMP DP RH WIND PRES REMARKS Savannah Arpt FAIR 63 41 44 N9 30.10R Atlanta FAIR 50 33 52 N12 30.18R Charlotte FAIR 44 29 55 N8 30.24R Dallas DFW PTCLDY 55 37 50 E7 30.25F Houston Bush MOCLDY 60 46 59 NE5 30.22S Wash National FAIR 44 22 41 NW8G17 30.18R Wash Dulles FAIR 38 25 59 NW6 30.17R WCI 33 Baltimore FAIR 39 23 52 W9 30.15R WCI 33 Philadelphia FAIR 41 22 46 NW14 30.10R Newark FAIR 38 25 59 W12 30.04R WCI 30 Laguardia FAIR 40 24 53 NW18 30.02R WCI 31 J F K FAIR 38 24 57 NW17G24 30.03R WCI 28 Boston CLOUDY 40 30 67 W15 29.84R WCI 32 Pittsburg FAIR 33 23 66 NW9 30.26R WCI 25 Akron FAIR 32 21 64 N5 30.29R WCI 27 Cleveland FAIR 33 23 66 W6 30.33R WCI 28 Cincinnati FAIR 42 26 53 N9 30.34R Columbus FAIR 42 32 68 N9 30.31R Detroit FAIR 36 27 69 SW5 30.35R WCI 32 Chicago O`Hare FAIR 40 23 50 NW7 30.43R WCI 35 Minneapolis FAIR 40 24 53 SW3 30.45S Indianapolis FAIR 38 16 40 N9 30.39S WCI 31 Toronto Canada CLEAR 32 21 64 N15G22 30.21R WCI 22 $$

USA.gov is the U.S. government's official web portal to all federal, state and local government web resources and services.